Location: Moscow
(55.7500°N, 37.5830°E)
Time: 07:58:35
(UTC+03:00)

A-11 Canister half - Pass Details

Date: 07 December 2021
Orbit: 1524 x 1684 km, 47.3° (Epoch: 17 January)

Event Time Altitude Azimuth Distance (km) Brightness Sun altitude
Exits shadow 01:24:07 12° 89° (E) 3,788 11.2 -54.9°
Drops below altitude 10° 01:24:37 10° 88° (E) 3,919 11.3 -54.8°
Sets 01:28:07 0° 80° (E) 4,891 11.9 -54.6°
